[Date Prev][Date Next][Thread Prev][Thread Next] - [Date Index][Thread Index][Author Index]

2 Line ISS Keps 12-3



ISS 
1 25544U 98067A   04338.17789352  .00017881  00000-0  14432-3 0  2771
2 25544  51.6367 183.2635 0004256  76.4414  70.1351 15.70946326344866
----
Via the sarex mailing list at AMSAT.ORG courtesy of AMSAT-NA.
To unsubscribe, send "unsubscribe sarex" to Majordomo@amsat.org



AMSAT Top AMSAT Home